When you browse on this site, cookies collect data to enhance your experience and personalize the content and advertising you see.
Visit our Privacy Policy to learn more. By continuing to use the site, you agree to this use of cookies and data.
  • In Spain
  • List of Countries
  • For 7 days
  • Water Temperature
  • Satellite Maps
  • Weather Map
  • Weather Widgets
  • user-avatar
    Login

    Hourly Weather Tabuk

    Today, 16 December, Sunday

    Time Temperature Precipitation Wind Pressure Humidity
    00:00 +15°C° 0 mm 1 mps 687 mmHg 64%
    01:00 +15°C° 0 mm 1 mps 687 mmHg 67%
    02:00 +15°C° 0 mm 1 mps 687 mmHg 70%
    03:00 +14°C° 0 mm 1 mps 686 mmHg 72%
    04:00 +14°C° 0 mm 1 mps 686 mmHg 74%
    05:00 +14°C° 0 mm 1 mps 686 mmHg 77%
    06:00 +15°C° 0 mm 1 mps 686 mmHg 72%
    07:00 +16°C° 0 mm 1 mps 687 mmHg 67%
    08:00 +18°C° 0 mm 1 mps 687 mmHg 61%
    09:00 +19°C° 0 mm 2 mps 687 mmHg 56%
    10:00 +21°C° 0 mm 3 mps 687 mmHg 50%
    11:00 +22°C° 0 mm 3 mps 687 mmHg 44%
    12:00 +23°C° 0 mm 4 mps 687 mmHg 44%
    13:00 +23°C° 0 mm 5 mps 687 mmHg 43%
    14:00 +23°C° 0 mm 6 mps 687 mmHg 42%
    15:00 +22°C° 0 mm 6 mps 686 mmHg 47%
    16:00 +21°C° 0 mm 5 mps 686 mmHg 51%
    17:00 +20°C° 0 mm 5 mps 686 mmHg 56%
    18:00 +19°C° 0 mm 4 mps 686 mmHg 61%
    19:00 +18°C° 0 mm 4 mps 686 mmHg 66%
    20:00 +17°C° 0 mm 3 mps 687 mmHg 72%
    21:00 +17°C° 0 mm 3 mps 687 mmHg 75%
    22:00 +16°C° 0 mm 3 mps 686 mmHg 79%
    23:00 +14°C° 0 mm 3 mps 686 mmHg 83%

    Tomorrow, 17 December, Monday

    Time Temperature Precipitation Wind Pressure Humidity
    00:00 +14°C° 0 mm 3 mps 686 mmHg 83%
    01:00 +14°C° 0 mm 3 mps 686 mmHg 84%
    02:00 +13°C° 0 mm 3 mps 686 mmHg 84%
    03:00 +13°C° 0 mm 3 mps 686 mmHg 85%
    04:00 +13°C° 0 mm 3 mps 686 mmHg 86%
    05:00 +12°C° 0 mm 3 mps 686 mmHg 87%
    06:00 +13°C° 0 mm 3 mps 686 mmHg 82%
    07:00 +13°C° 0 mm 3 mps 687 mmHg 77%
    08:00 +14°C° 0 mm 3 mps 687 mmHg 72%
    09:00 +17°C° 0 mm 4 mps 687 mmHg 59%
    10:00 +17°C° 0 mm 5 mps 687 mmHg 45%
    11:00 +20°C° 0 mm 5 mps 688 mmHg 32%
    12:00 +20°C° 0 mm 6 mps 687 mmHg 28%
    13:00 +20°C° 0 mm 6 mps 687 mmHg 25%
    14:00 +21°C° 0 mm 6 mps 687 mmHg 22%
    15:00 +20°C° 0 mm 6 mps 687 mmHg 25%
    16:00 +19°C° 0 mm 5 mps 687 mmHg 28%
    17:00 +17°C° 0 mm 4 mps 687 mmHg 31%
    18:00 +17°C° 0 mm 3 mps 687 mmHg 34%
    19:00 +16°C° 0 mm 3 mps 687 mmHg 38%
    20:00 +15°C° 0 mm 2 mps 688 mmHg 41%
    21:00 +14°C° 0 mm 2 mps 688 mmHg 42%
    22:00 +13°C° 0 mm 1 mps 688 mmHg 44%
    23:00 +12°C° 0 mm 1 mps 688 mmHg 45%

    Day after tomorrow, 18 December, Tuesday

    Time Temperature Precipitation Wind Pressure Humidity
    00:00 +12°C° 0 mm 1 mps 688 mmHg 45%
    01:00 +11°C° 0 mm 1 mps 688 mmHg 45%
    02:00 +11°C° 0 mm 1 mps 688 mmHg 45%
    03:00 +10°C° 0 mm 1 mps 687 mmHg 46%
    04:00 +10°C° 0 mm 1 mps 687 mmHg 47%
    05:00 +9°C° 0 mm 1 mps 687 mmHg 47%
    06:00 +10°C° 0 mm 1 mps 688 mmHg 44%
    07:00 +11°C° 0 mm 1 mps 689 mmHg 40%
    08:00 +12°C° 0 mm 1 mps 689 mmHg 37%
    09:00 +14°C° 0 mm 2 mps 690 mmHg 33%
    10:00 +15°C° 0 mm 2 mps 690 mmHg 29%
    11:00 +17°C° 0 mm 2 mps 690 mmHg 26%
    12:00 +18°C° 0 mm 2 mps 690 mmHg 23%
    13:00 +19°C° 0 mm 2 mps 689 mmHg 21%
    14:00 +19°C° 0 mm 2 mps 689 mmHg 19%
    15:00 +18°C° 0 mm 2 mps 689 mmHg 20%
    16:00 +18°C° 0 mm 2 mps 688 mmHg 21%
    17:00 +17°C° 0 mm 2 mps 688 mmHg 23%
    18:00 +16°C° 0 mm 2 mps 688 mmHg 25%
    19:00 +15°C° 0 mm 2 mps 689 mmHg 27%
    20:00 +14°C° 0 mm 2 mps 689 mmHg 30%
    21:00 +14°C° 0 mm 2 mps 688 mmHg 32%
    22:00 +13°C° 0 mm 1 mps 688 mmHg 34%
    23:00 +13°C° 0 mm 1 mps 688 mmHg 36%

    19 December, Wednesday

    Time Temperature Precipitation Wind Pressure Humidity
    00:00 +12°C° 0 mm 1 mps 688 mmHg 39%
    01:00 +12°C° 0 mm 1 mps 687 mmHg 41%
    02:00 +11°C° 0 mm 1 mps 687 mmHg 43%
    03:00 +11°C° 0 mm 1 mps 687 mmHg 45%
    04:00 +10°C° 0 mm 1 mps 686 mmHg 47%
    05:00 +10°C° 0 mm 1 mps 686 mmHg 49%
    06:00 +11°C° 0 mm 1 mps 687 mmHg 44%
    07:00 +12°C° 0 mm 0 mps 687 mmHg 40%
    08:00 +13°C° 0 mm 0 mps 688 mmHg 35%
    09:00 +16°C° 0 mm 1 mps 688 mmHg 29%
    10:00 +19°C° 0 mm 1 mps 688 mmHg 23%
    11:00 +20°C° 0 mm 2 mps 688 mmHg 17%
    12:00 +20°C° 0 mm 3 mps 688 mmHg 15%
    13:00 +21°C° 0 mm 3 mps 687 mmHg 12%
    14:00 +22°C° 0 mm 4 mps 687 mmHg 9%
    15:00 +21°C° 0 mm 4 mps 687 mmHg 12%
    16:00 +19°C° 0 mm 4 mps 687 mmHg 14%
    17:00 +18°C° 0 mm 4 mps 687 mmHg 16%
    18:00 +17°C° 0 mm 3 mps 687 mmHg 20%
    19:00 +16°C° 0 mm 3 mps 687 mmHg 25%
    20:00 +15°C° 0 mm 2 mps 687 mmHg 29%
    21:00 +14°C° 0 mm 2 mps 687 mmHg 34%
    22:00 +13°C° 0 mm 2 mps 687 mmHg 40%
    23:00 +12°C° 0 mm 2 mps 687 mmHg 45%

    20 December, Thursday

    Time Temperature Precipitation Wind Pressure Humidity
    00:00 +12°C° 0 mm 2 mps 687 mmHg 50%
    01:00 +10°C° 0 mm 2 mps 687 mmHg 54%
    02:00 +9°C° 0 mm 2 mps 687 mmHg 59%
    03:00 +9°C° 0 mm 2 mps 687 mmHg 64%
    04:00 +9°C° 0 mm 1 mps 687 mmHg 68%
    05:00 +9°C° 0 mm 1 mps 687 mmHg 73%
    06:00 +9°C° 0 mm 1 mps 688 mmHg 70%
    07:00 +10°C° 0 mm 1 mps 688 mmHg 66%
    08:00 +11°C° 0 mm 1 mps 689 mmHg 63%
    09:00 +12°C° 0 mm 1 mps 689 mmHg 54%
    10:00 +14°C° 0 mm 2 mps 689 mmHg 45%
    11:00 +15°C° 0 mm 2 mps 690 mmHg 36%
    12:00 +16°C° 0 mm 2 mps 689 mmHg 33%
    13:00 +17°C° 0 mm 2 mps 689 mmHg 31%
    14:00 +17°C° 0 mm 2 mps 689 mmHg 28%
    15:00 +17°C° 0 mm 3 mps 689 mmHg 30%
    16:00 +16°C° 0 mm 3 mps 689 mmHg 33%
    17:00 +14°C° 0 mm 3 mps 689 mmHg 35%
    18:00 +14°C° 0 mm 2 mps 689 mmHg 39%
    19:00 +13°C° 0 mm 2 mps 689 mmHg 43%
    20:00 +12°C° 0 mm 1 mps 689 mmHg 46%
    21:00 +12°C° 0 mm 1 mps 689 mmHg 48%
    22:00 +11°C° 0 mm 1 mps 689 mmHg 50%
    23:00 +11°C° 0 mm 1 mps 689 mmHg 52%

    21 December, Friday

    Time Temperature Precipitation Wind Pressure Humidity
    00:00 +11°C° 0 mm 1 mps 689 mmHg 54%
    01:00 +10°C° 0 mm 1 mps 689 mmHg 56%
    02:00 +9°C° 0 mm 2 mps 688 mmHg 57%
    03:00 +9°C° 0 mm 2 mps 688 mmHg 60%
    04:00 +8°C° 0 mm 2 mps 688 mmHg 63%
    05:00 +8°C° 0 mm 2 mps 688 mmHg 66%
    06:00 +9°C° 0 mm 2 mps 689 mmHg 62%
    07:00 +10°C° 0 mm 2 mps 689 mmHg 58%
    08:00 +12°C° 0 mm 2 mps 690 mmHg 54%
    09:00 +12°C° 0 mm 3 mps 690 mmHg 47%
    10:00 +14°C° 0 mm 3 mps 690 mmHg 40%
    11:00 +15°C° 0 mm 4 mps 690 mmHg 32%
    12:00 +17°C° 0 mm 4 mps 690 mmHg 29%
    13:00 +18°C° 0 mm 3 mps 689 mmHg 27%
    14:00 +19°C° 0 mm 3 mps 689 mmHg 24%
    15:00 +18°C° 0 mm 3 mps 689 mmHg 26%
    16:00 +17°C° 0 mm 3 mps 689 mmHg 28%
    17:00 +16°C° 0 mm 3 mps 689 mmHg 30%
    18:00 +14°C° 0 mm 3 mps 689 mmHg 33%
    19:00 +13°C° 0 mm 3 mps 689 mmHg 36%
    20:00 +14°C° 0 mm 2 mps 689 mmHg 39%
    21:00 +13°C° 0 mm 2 mps 689 mmHg 41%
    22:00 +12°C° 0 mm 2 mps 688 mmHg 43%
    23:00 +12°C° 0 mm 2 mps 688 mmHg 45%
    Show more